Regional Weather Roundup
Issued by NWS San Diego, CA

Home | Current Version | Previous Version | Text Only | Print | Product List | Glossary On
Versions: 1 2 3 4 5 6 7 8 9 10 11 12 13 14 15 16 17 18 19 20 21 22 23 24 25 26 27 28 29 30 31 32 33 34 35 36 37 38 39 40 41 42 43 44 45 46 47 48 49 50
000
ASUS46 KSGX 192111
RWRSGX

SAN DIEGO HOURLY WEATHER ROUNDUP
NATIONAL WEATHER SERVICE SAN DIEGO CA
100 PM PST SUN FEB 19 2017

NOTE: "FAIR" INDICATES FEW OR NO CLOUDS BELOW 12,000 FEET WITH NO
SIGNIFICANT WEATHER AND/OR OBSTRUCTIONS TO VISIBILITY.

CAZ042-043-060-061-PZZ750-775-192200-

GREATER SAN DIEGO AREA

CITY           SKY/WX    TMP DP  RH WIND       PRES   REMARKS
SAN DIEGO AP   PTSUNNY   61  45  55 SW13      30.02F
NATIONAL CITY    N/A     60  51  70 SW3       30.01F
CHULA VISTA      N/A     60  52  76 W5        29.94S
IMPERIAL BEACH MOSUNNY  N/A N/A N/A W13       30.02F
BROWN FIELD    CLOUDY    58  50  75 W8        30.00F
MIRAMAR MCAS   PTSUNNY   61  50  67 W9        29.99F
MONTGOMERY FLD PTSUNNY   57  46  66 W13       30.00F

$$

NORTH SAN DIEGO COUNTY

CITY           SKY/WX    TMP DP  RH WIND       PRES   REMARKS
CAMP PENDLETON CLOUDY    61  48  63 SW8       30.00R
OCEANSIDE AP   CLOUDY    60  50  69 W13       29.99S
OCEANSIDE HBR    N/A     58  50  75 NW7       30.02S
VISTA            N/A     57  50  79 W2        29.98S
CARLSBAD       CLOUDY    58  48  69 SW9       29.99S
DEL MAR          N/A     61  53  74 NW2       30.03S
LA JOLLA SCRIP   N/A     57  51  79 SW7       30.01S
FALLBROOK        N/A     56  55  95 SW6       29.97F
ESCONDIDO        N/A     58  51  77 SW3       30.01F
SAN MARCOS       N/A     56  49  78 W8        30.01F
POWAY            N/A     56  53  89 CALM      30.03F

$$

EAST SAN DIEGO COUNTY

CITY           SKY/WX    TMP DP  RH WIND       PRES   REMARKS
RAMONA         CLOUDY    53  50  89 SW9       29.99S
SANTEE LAKES     N/A     58  51  78 SW3       30.00F
LA MESA          N/A     55  50  82 W3        29.95F
JAMUL            N/A     55  52  91 CALM      30.02F
DESCANSO N       N/A     44  43  96 W3        29.95F
CAMPO            N/A     49  47  93 SW15      29.94S

$$

ORANGE COUNTY AND THE LOS ANGELES BASIN

CITY           SKY/WX    TMP DP  RH WIND       PRES   REMARKS
JOHN WAYNE AP  PTSUNNY   60  50  69 S12       29.98S
LAGUNA BEACH     N/A     60  53  76 S5        29.95R
LAKE FOREST FR   N/A     55  47  74 CALM      29.89S
HUNTINGTON BCH   N/A     64  54  70 SW5       29.99S
LOS ALAMITOS   CLOUDY    58  53  82 S7        29.98R
FULLERTON      LGT RAIN  58  54  86 E5        29.97S
LONG BEACH     CLOUDY    59  47  64 S5        29.98S
L.A. AP        PTSUNNY   57  50  77 W9        29.98R
L.A. DOWNTOWN  CLOUDY    60  49  66 W3        29.97S

$$

THE INLAND EMPIRE

CITY           SKY/WX    TMP DP  RH WIND       PRES   REMARKS
CORONA         CLOUDY    60  50  69 W3        29.97S
CHINO          PTSUNNY   62  52  69 SW13      29.97F
ONTARIO        PTSUNNY   57  50  77 VRB6      29.96S
SAN BERNARDINO DRIZZLE   57  48  72 N3        29.97
RIVERSIDE AP   CLOUDY    60  50  69 CALM      29.95F
MORENO VALLEY    N/A     56  53  90 SE6       28.07F
MARCH ARB      CLOUDY    54  54 100 E9        29.95S
HORSETHIEF CYN   N/A     75  63  66 CALM      29.94F
PERRIS           N/A     53  51  95 S2        30.00S
HEMET EAST       N/A     51  46  84 CALM      30.04S
FRENCH VALLEY  CLOUDY    54  46  76 S12       29.97F
TEMECULA         N/A     55  51  89 SW5       30.04S

$$

SAN BERNARDINO AND RIVERSIDE COUNTY MOUNTAINS

CITY           SKY/WX    TMP DP  RH WIND       PRES   REMARKS
BIG BEAR AP    SUNNY     41  32  70 W10       29.93S
ANGELUS OAKS     N/A     38  36  92 CALM      29.95R
PINE COVE        N/A     36  36  99 NW3       30.00F

$$

SOUTHERN DESERT INCLUDING THE COACHELLA VALLEY

CITY           SKY/WX    TMP DP  RH WIND       PRES   REMARKS
PALM SPRINGS   CLOUDY    64  54  69 E7        29.91F
PALM DESERT      N/A     67  51  55 CALM        N/A
THERMAL        CLOUDY    64  53  67 VRB3      29.89F
BLYTHE         CLOUDY    64  49  57 W14       29.90F
IMPERIAL AP    MOSUNNY   68  49  50 W10       29.89F
EL CENTRO NAS  SUNNY     68  43  40 W13G22    29.92F
YUMA AZ        MOSUNNY   66  49  54 SW7       29.92
MEXICALI       MOSUNNY   68  48  49 SE6       29.92F

$$

UPPER DESERT

CITY           SKY/WX    TMP DP  RH WIND       PRES   REMARKS
VICTORVILLE AP SUNNY     57  43  58 S17       29.89R
HESPERIA         N/A     53  44  71 SW10      30.05S
PALMDALE       SUNNY     57  44  62 SW25      29.90R
LANCASTER      SUNNY     56  44  64 SW24G31   29.90R
EDWARDS AFB    MOSUNNY   58  43  59 SW25G31   29.85F
DAGGETT        MOSUNNY   64  41  42 W13       29.86S
29 PALMS N     PTSUNNY   59  43  55 SE7       29.94F
NEEDLES        PTSUNNY   66  50  56 SW12      29.88F

$$

REGIONAL REPORTS

CITY           SKY/WX    TMP DP  RH WIND       PRES   REMARKS
SANTA BARBARA  MOSUNNY   60  46  59 SW6       29.96S
SANDBERG       FOG       45  43  93 S16G25    29.94R VSB 3/4
LAS VEGAS NV   MOSUNNY   61  38  42 S14G21    29.81F
PHOENIX AZ     LGT RAIN  57  50  77 W10       29.92S
TIJUANA        CLOUDY    55  46  71 W12       30.03
ENSENADA NW      N/A     61  32  34 W16       30.00F

$$

OFFSHORE ISLANDS

CITY           SKY/WX    TMP DP  RH WIND       PRES   REMARKS
CATALINA ARPT  CLOUDY    50  47  89 W9        29.98R
SAN NICOLAS IS MOSUNNY  N/A N/A N/A NW13G22   29.98F

$$

MARINE AND OFFSHORE BUOY REPORTS

STATION/POSITION SKY/WX   TEMP    WIND        PRES    VSBY  SWELL
                          AIR SEA DIR/SP/G                  HT/PER/DIR
                          (F)     (DEG/KT/KT) (MB)    (MI)  (FT/S/D)
TANNER BANKS               57 58  290/ 12/ 14 1016.1F        11/300/12
S CLEMENTE BASIN           56 59  280/ 14/ 17 1016.4R         8/270/13
SAN NICOLAS IS.               56                N/A           7/290/11
SO. S. ROSA ISLA           56 56  290/ 10/ 12 1015.6R        10/290/13
W. S. BARBARA CH           55 57  280/  6/  8 1015.4F        10/270/12
M. S. BARBARA CH                  260/  8/ 12 1015.5F
S. MONICA BASIN            57 59  260/  6/ 10 1015.3F         7/260/13
S PEDRO CHANNEL               59                N/A           5/270/12
CMP PENDLETON NS              59                N/A           3/250/13
OCEANSIDE OFFSHR              59                N/A           3/270/13
TORREY PINES OTR              60                N/A           5/260/13
POINT LOMA SOUTH              60                N/A           7/280/13

$$




USA.gov is the U.S. government's official web portal to all federal, state and local government web resources and services.